Location: Paralde Spring
(38.5794°N, 119.0140°W)
Time: 17:45:10
(UTC+00:00)

NOSS 3-3 (A) - Pass Details

Date: 18 September 2020
Orbit: 822 x 1390 km, 63.4° (Epoch: 13 October)

Event Time Altitude Azimuth Distance (km) Brightness Sun altitude
Exits shadow 12:15:15 26° 233° (SW) 1,659 4.7 -17.3°
Maximum altitude 12:18:35 63° 307° (NW) 1,010 3.9 -16.7°
Drops below altitude 10° 12:24:56 10° 28° (NNE) 2,777 7.0 -15.5°
Sets 12:27:45 0° 32° (NNE) 3,818 7.8 -14.9°
